Location: Coleto Creek Park and Reservoir
(28.7196°N, 97.1740°W)
Time: 19:13:31
(UTC-05:00)

HST - Visible Passes

Search period start: 17 April 2014 00:00
Search period end: 27 April 2014 00:00
Orbit: 549 x 553 km, 28.5° (Epoch: 16 April)

Date Brightness Start Highest point End Pass type
(mag) Time Alt. Az. Time Alt. Az. Time Alt. Az.
17 Apr 1.2 20:15:20 10° WSW 20:19:22 47° SSE 20:23:23 10° E visible
17 Apr 1.6 21:56:33 10° W 21:59:36 47° W 21:59:36 47° W visible
18 Apr 1.1 21:50:08 10° W 21:53:41 63° W 21:53:41 63° W visible
19 Apr 0.8 21:43:44 10° W 21:47:42 80° W 21:47:42 80° W visible
20 Apr 0.6 21:37:18 10° W 21:41:30 84° S 21:41:39 81° SE visible
21 Apr 0.6 21:30:53 10° W 21:35:04 77° S 21:35:34 65° SE visible
22 Apr 0.8 21:24:27 10° W 21:28:37 68° S 21:29:28 51° SE visible
23 Apr 1.0 21:18:02 10° W 21:22:08 57° SSW 21:23:20 40° SE visible
24 Apr 1.3 21:11:38 10° W 21:15:39 47° SSW 21:17:13 31° SE visible
25 Apr 1.7 21:05:16 10° W 21:09:08 37° SSW 21:11:07 23° SSE visible
26 Apr 2.1 20:58:57 10° W 21:02:36 29° SSW 21:05:01 17° SSE visible
